Weather in Georgiyevskoye

Russia / Arkhangel'skaya Oblast'     61°32′08″N   41°33′42″E
temp.,
°C
wind,
m/s
gust,
m/s
humid.,
%
clouds,
%
prec.,
mm/h
press.,
hPa
HPBL,
m
16 may, sun
sun1600:00+14sse41096100 1.8 1006424
03:00+13sse3998100 7.3 1005487
06:00+13ssw499396 0.1 1004635
09:00+13ssw41095100 5.4 1005657
12:00+16sw51087100 1.1 1005941
15:00+17wsw51078100 2.1 10061124
18:00+16wsw498797 1.5 1006934
21:00+12w2497100 2.4 100895
17 may, mon
mon1700:00+11nw2599100 0.0 1009187
03:00+10nw269989 0.0 1011247
06:00+11nnw269383 0.0 1014270
09:00+15nw2274100 0.0 1017621
12:00+19nnw12524 0.0 10171169
15:00+21wsw00454 0.0 10171640
18:00+20ese1156100 0.0 1017446
21:00+14e2270100 0.0 101824
18 may, tue
tue1800:00+12ese3879100 0.0 1019155
03:00+11ese3108673 0.0 1019195
06:00+14se4137779 0.0 1019451
09:00+19se596080 0.0 1018721
12:00+23se68518 0.0 10161232
15:00+25sse584550 0.0 10161647
18:00+24sse49535 0.0 1015819
21:00+19se413746 0.0 1015389
19 may, wed
wed1900:00+17sse4138992 0.1 1015394
03:00+15sse3139581 0.1 1015329
06:00+17sse4128616 0.0 1014371
09:00+23s59585 0.0 1013640
12:00+28s5103519 0.0 10131911
15:00+29s593116 0.0 10123715
18:00+26sse5103959 0.0 10121043
21:00+20sse313615 0.0 1012334
20 may, thu
thu2000:00+18sse416690 0.0 1012501
03:00+15sse310900 0.0 1012238
06:00+18sse388116 0.0 1012266
09:00+23se475974 0.0 1011688
12:00+26s5842100 0.0 10101759
15:00+28s583889 0.0 10092835
18:00+26sse510441 0.0 10071677
21:00+22se514530 0.0 1006692